| time (UTC) | temp F | wind direction | speed MPH | gust MPH | rain 1hr in | rain 24hr in | rain mn in | humidity % | barometer mb |
| 20260510145515 | 58 | 114 | 0.0 | 3.0 | 0.00 | 0.15 | 0.00 | 81 | 1011.8 |
| 20260510144515 | 58 | 249 | 0.0 | 2.0 | 0.00 | 0.16 | 0.00 | 81 | 1011.7 |
| 20260510143537 | 58 | 249 | 0.0 | 3.0 | 0.00 | 0.16 | 0.00 | 81 | 1011.6 |
| 20260510142517 | 58 | 249 | 0.0 | 1.0 | 0.00 | 0.18 | 0.00 | 81 | 1011.5 |
| 20260510141557 | 58 | 249 | 0.0 | 3.0 | 0.00 | 0.19 | 0.00 | 81 | 1011.4 |
| 20260510140517 | 58 | 249 | 0.0 | 4.0 | 0.00 | 0.19 | 0.00 | 80 | 1011.5 |
| 20260510135516 | 59 | 272 | 2.0 | 7.0 | 0.00 | 0.20 | 0.00 | 78 | 1011.3 |
| 20260510134638 | 59 | 283 | 1.0 | 6.0 | 0.00 | 0.20 | 0.00 | 80 | 1011.0 |
| 20260510133516 | 59 | 261 | 2.0 | 6.0 | 0.00 | 0.21 | 0.00 | 80 | 1010.8 |
| 20260510132515 | 58 | 277 | 2.0 | 6.0 | 0.00 | 0.21 | 0.00 | 82 | 1010.9 |
| 20260510131516 | 57 | 135 | 1.0 | 5.0 | 0.00 | 0.22 | 0.00 | 84 | 1010.7 |
| 20260510130537 | 57 | 203 | 1.0 | 6.0 | 0.00 | 0.22 | 0.00 | 84 | 1010.8 |
| 20260510125517 | 57 | 209 | 1.0 | 5.0 | 0.00 | 0.22 | 0.00 | 85 | 1010.8 |
| 20260510124516 | 56 | 129 | 1.0 | 4.0 | 0.00 | 0.23 | 0.00 | 86 | 1010.7 |
| 20260510123557 | 55 | 248 | 1.0 | 5.0 | 0.00 | 0.23 | 0.00 | 87 | 1010.7 |
| 20260510122516 | 55 | 295 | 0.0 | 2.0 | 0.00 | 0.23 | 0.00 | 89 | 1010.6 |
| 20260510121516 | 54 | 295 | 0.0 | 1.0 | 0.00 | 0.23 | 0.00 | 90 | 1010.5 |
| 20260510120516 | 53 | 295 | 0.0 | 1.0 | 0.00 | 0.23 | 0.00 | 91 | 1010.5 |
| 20260510115516 | 53 | 0.0 | 1.0 | 0.00 | 0.23 | 0.00 | 91 | 1010.5 | |
| 20260510114516 | 53 | 0.0 | 0.0 | 0.00 | 0.23 | 0.00 | 92 | 1010.6 | |
| 20260510113516 | 52 | 0.0 | 4.0 | 0.00 | 0.23 | 0.00 | 93 | 1010.7 | |
| 20260510112516 | 52 | 295 | 0.0 | 2.0 | 0.00 | 0.23 | 0.00 | 94 | 1010.4 |
| 20260510111536 | 51 | 294 | 0.0 | 1.0 | 0.00 | 0.23 | 0.00 | 94 | 1010.3 |
| 20260510110516 | 51 | 0.0 | 0.0 | 0.00 | 0.23 | 0.00 | 94 | 1010.3 | |
| 20260510105516 | 51 | 0.0 | 0.0 | 0.00 | 0.23 | 0.00 | 94 | 1010.2 | |
| 20260510104516 | 50 | 0.0 | 0.0 | 0.00 | 0.23 | 0.00 | 94 | 1010.0 | |
| 20260510103516 | 50 | 0.0 | 0.0 | 0.00 | 0.23 | 0.00 | 94 | 1009.8 | |
| 20260510102516 | 50 | 0.0 | 0.0 | 0.00 | 0.23 | 0.00 | 94 | 1009.7 | |
| 20260510101516 | 50 | 0.0 | 0.0 | 0.00 | 0.23 | 0.00 | 93 | 1009.5 | |
| 20260510100516 | 50 | 0.0 | 0.0 | 0.00 | 0.23 | 0.00 | 93 | 1009.4 | |
| 20260510095516 | 50 | 0.0 | 0.0 | 0.00 | 0.23 | 0.00 | 93 | 1009.1 | |
| 20260510094515 | 50 | 0.0 | 0.0 | 0.00 | 0.23 | 0.00 | 93 | 1009.0 | |
| 20260510093516 | 50 | 0.0 | 0.0 | 0.00 | 0.23 | 0.00 | 92 | 1008.9 | |
| 20260510092536 | 50 | 0.0 | 0.0 | 0.00 | 0.23 | 0.00 | 92 | 1008.7 | |
| 20260510091536 | 51 | 0.0 | 0.0 | 0.00 | 0.23 | 0.00 | 92 | 1008.6 | |
| 20260510090516 | 51 | 0.0 | 0.0 | 0.00 | 0.23 | 0.00 | 92 | 1008.4 | |
| 20260510085516 | 51 | 0.0 | 0.0 | 0.00 | 0.23 | 0.00 | 91 | 1008.7 | |
| 20260510084515 | 52 | 0.0 | 0.0 | 0.00 | 0.23 | 0.00 | 90 | 1008.9 | |
| 20260510083515 | 52 | 0.0 | 0.0 | 0.00 | 0.23 | 0.00 | 90 | 1008.8 | |
| 20260510082515 | 52 | 294 | 0.0 | 1.0 | 0.00 | 0.23 | 0.00 | 90 | 1008.8 |
| 20260510081515 | 52 | 296 | 0.0 | 3.0 | 0.00 | 0.23 | 0.00 | 90 | 1008.8 |
| 20260510080515 | 52 | 99 | 2.0 | 4.0 | 0.00 | 0.23 | 0.00 | 90 | 1008.2 |
| 20260510075536 | 52 | 305 | 0.0 | 1.0 | 0.00 | 0.23 | 0.00 | 90 | 1008.6 |
| 20260510074515 | 52 | 305 | 0.0 | 3.0 | 0.00 | 0.23 | 0.00 | 90 | 1008.5 |
| 20260510073536 | 52 | 305 | 0.0 | 2.0 | 0.00 | 0.23 | 0.00 | 90 | 1009.0 |
| 20260510072515 | 52 | 0.0 | 1.0 | 0.00 | 0.23 | 0.00 | 90 | 1009.4 | |
| 20260510071516 | 52 | 300 | 0.0 | 4.0 | 0.00 | 0.23 | 0.00 | 90 | 1009.7 |
| 20260510070515 | 52 | 301 | 0.0 | 3.0 | 0.00 | 0.23 | 0.00 | 90 | 1009.7 |
| 20260510065515 | 53 | 281 | 0.0 | 4.0 | 0.00 | 0.23 | 0.00 | 90 | 1009.7 |
| 20260510064515 | 53 | 0.0 | 1.0 | 0.00 | 0.23 | 0.00 | 91 | 1009.6 | |
| 20260510063515 | 52 | 112 | 0.0 | 1.0 | 0.00 | 0.23 | 0.00 | 91 | 1009.5 |
| 20260510062515 | 52 | 0.0 | 3.0 | 0.00 | 0.23 | 0.00 | 90 | 1009.3 | |
| 20260510061515 | 52 | 0.0 | 1.0 | 0.00 | 0.23 | 0.00 | 90 | 1009.1 | |
| 20260510060516 | 53 | 0.0 | 0.0 | 0.00 | 0.23 | 0.00 | 89 | 1009.2 | |
| 20260510055516 | 53 | 0.0 | 0.0 | 0.00 | 0.23 | 0.00 | 89 | 1009.2 | |
| 20260510054516 | 53 | 105 | 0.0 | 1.0 | 0.00 | 0.23 | 0.00 | 88 | 1009.1 |
| 20260510053516 | 53 | 105 | 0.0 | 2.0 | 0.00 | 0.23 | 0.00 | 88 | 1008.9 |
| 20260510052516 | 53 | 105 | 0.0 | 3.0 | 0.00 | 0.23 | 0.00 | 89 | 1008.9 |
| 20260510051516 | 53 | 105 | 0.0 | 2.0 | 0.00 | 0.23 | 0.00 | 88 | 1008.9 |
| 20260510050516 | 53 | 105 | 0.0 | 2.0 | 0.00 | 0.23 | 0.00 | 88 | 1008.9 |
| 20260510045516 | 53 | 105 | 0.0 | 3.0 | 0.00 | 0.23 | 0.00 | 87 | 1009.0 |
| 20260510044516 | 53 | 105 | 1.0 | 2.0 | 0.00 | 0.23 | 0.00 | 88 | 1009.1 |
| 20260510043516 | 53 | 105 | 0.0 | 1.0 | 0.00 | 0.23 | 0.00 | 88 | 1009.1 |
| 20260510042556 | 52 | 105 | 0.0 | 2.0 | 0.00 | 0.23 | 0.00 | 88 | 1009.0 |
| 20260510041516 | 52 | 105 | 0.0 | 2.0 | 0.00 | 0.23 | 0.00 | 88 | 1009.0 |
| 20260510040516 | 53 | 0.0 | 2.0 | 0.00 | 0.23 | 0.00 | 88 | 1009.0 | |
| 20260510035516 | 53 | 0.0 | 3.0 | 0.00 | 0.23 | 0.23 | 88 | 1009.1 | |
| 20260510034516 | 53 | 105 | 0.0 | 1.0 | 0.00 | 0.23 | 0.23 | 88 | 1009.0 |
| 20260510033516 | 53 | 105 | 1.0 | 4.0 | 0.00 | 0.23 | 0.23 | 87 | 1008.8 |
| 20260510032536 | 53 | 105 | 1.0 | 3.0 | 0.00 | 0.23 | 0.23 | 87 | 1009.0 |
| 20260510031516 | 53 | 105 | 1.0 | 2.0 | 0.00 | 0.23 | 0.23 | 87 | 1009.0 |
| 20260510030516 | 53 | 105 | 1.0 | 3.0 | 0.00 | 0.23 | 0.23 | 88 | 1009.2 |
| 20260510025516 | 53 | 105 | 1.0 | 3.0 | 0.00 | 0.23 | 0.23 | 88 | 1009.2 |
| 20260510024516 | 53 | 100 | 1.0 | 3.0 | 0.00 | 0.23 | 0.23 | 88 | 1009.2 |
| 20260510023516 | 53 | 71 | 0.0 | 2.0 | 0.00 | 0.23 | 0.23 | 90 | 1009.3 |
| 20260510022557 | 53 | 71 | 1.0 | 3.0 | 0.00 | 0.23 | 0.23 | 89 | 1009.0 |
| 20260510021516 | 53 | 68 | 0.0 | 2.0 | 0.00 | 0.23 | 0.23 | 90 | 1009.1 |
| 20260510020516 | 52 | 68 | 0.0 | 2.0 | 0.00 | 0.23 | 0.23 | 91 | 1009.2 |
| 20260510015536 | 52 | 0.0 | 2.0 | 0.00 | 0.23 | 0.23 | 91 | 1009.0 | |
| 20260510014516 | 52 | 0.0 | 0.0 | 0.00 | 0.23 | 0.23 | 91 | 1009.0 | |
| 20260510013516 | 52 | 117 | 1.0 | 3.0 | 0.00 | 0.23 | 0.23 | 91 | 1009.3 |
| 20260510012536 | 52 | 0.0 | 0.0 | 0.00 | 0.23 | 0.23 | 92 | 1009.2 | |
| 20260510011516 | 52 | 0.0 | 0.0 | 0.00 | 0.23 | 0.23 | 92 | 1009.2 | |
| 20260510010516 | 52 | 0.0 | 2.0 | 0.00 | 0.23 | 0.23 | 92 | 1009.0 | |
| 20260510005516 | 52 | 0.0 | 0.0 | 0.00 | 0.23 | 0.23 | 92 | 1009.1 | |
| 20260510004536 | 52 | 0.0 | 1.0 | 0.00 | 0.23 | 0.23 | 92 | 1009.0 | |
| 20260510003516 | 52 | 0.0 | 0.0 | 0.00 | 0.23 | 0.23 | 92 | 1009.0 | |
| 20260510002516 | 52 | 0.0 | 0.0 | 0.00 | 0.23 | 0.23 | 92 | 1008.8 | |
| 20260510001515 | 53 | 0.0 | 0.0 | 0.00 | 0.23 | 0.23 | 91 | 1008.5 | |
| 20260510000516 | 53 | 0.0 | 0.0 | 0.00 | 0.23 | 0.23 | 91 | 1008.4 | |
| 20260509235516 | 53 | 0.0 | 0.0 | 0.00 | 0.23 | 0.23 | 91 | 1008.5 | |
| 20260509234516 | 53 | 0.0 | 0.0 | 0.00 | 0.23 | 0.23 | 91 | 1008.4 | |
| 20260509233516 | 54 | 0.0 | 0.0 | 0.00 | 0.23 | 0.23 | 92 | 1008.2 | |
| 20260509232515 | 53 | 0.0 | 0.0 | 0.00 | 0.23 | 0.23 | 92 | 1008.0 | |
| 20260509231516 | 53 | 0.0 | 0.0 | 0.00 | 0.23 | 0.23 | 92 | 1008.0 | |
| 20260509230516 | 53 | 0.0 | 0.0 | 0.00 | 0.23 | 0.23 | 91 | 1008.1 | |
| 20260509225515 | 53 | 0.0 | 0.0 | 0.00 | 0.23 | 0.23 | 91 | 1008.1 | |
| 20260509224515 | 53 | 0.0 | 0.0 | 0.00 | 0.23 | 0.23 | 91 | 1008.1 | |
| 20260509223515 | 53 | 0.0 | 2.0 | 0.00 | 0.23 | 0.23 | 91 | 1007.9 | |
| 20260509222515 | 53 | 148 | 0.0 | 2.0 | 0.00 | 0.23 | 0.23 | 92 | 1008.1 |
| 20260509221516 | 52 | 0.0 | 1.0 | 0.00 | 0.23 | 0.23 | 92 | 1008.1 | |
| 20260509220515 | 52 | 0.0 | 0.0 | 0.00 | 0.23 | 0.23 | 92 | 1008.3 | |
| 20260509215515 | 52 | 148 | 0.0 | 2.0 | 0.00 | 0.23 | 0.23 | 92 | 1008.5 |
| 20260509214515 | 52 | 189 | 0.0 | 1.0 | 0.00 | 0.23 | 0.23 | 93 | 1008.6 |
| 20260509213515 | 51 | 0.0 | 0.0 | 0.00 | 0.23 | 0.23 | 92 | 1008.6 | |
| 20260509212515 | 51 | 0.0 | 0.0 | 0.00 | 0.23 | 0.23 | 92 | 1008.6 | |
| 20260509211515 | 51 | 92 | 0.0 | 1.0 | 0.00 | 0.23 | 0.23 | 92 | 1008.7 |
| 20260509210515 | 51 | 92 | 0.0 | 3.0 | 0.00 | 0.23 | 0.23 | 92 | 1008.8 |
| 20260509205535 | 51 | 92 | 0.0 | 3.0 | 0.00 | 0.23 | 0.23 | 92 | 1009.0 |
| 20260509204516 | 51 | 77 | 0.0 | 2.0 | 0.00 | 0.23 | 0.23 | 92 | 1009.1 |
| 20260509203535 | 51 | 77 | 0.0 | 1.0 | 0.00 | 0.23 | 0.23 | 92 | 1009.2 |
| 20260509202515 | 51 | 77 | 1.0 | 2.0 | 0.00 | 0.23 | 0.23 | 92 | 1009.3 |
| 20260509201515 | 51 | 76 | 0.0 | 3.0 | 0.01 | 0.23 | 0.23 | 92 | 1009.4 |
| 20260509200515 | 51 | 76 | 0.0 | 3.0 | 0.01 | 0.23 | 0.23 | 92 | 1009.5 |
| 20260509195516 | 51 | 113 | 0.0 | 2.0 | 0.01 | 0.23 | 0.23 | 91 | 1009.6 |
| 20260509194515 | 51 | 117 | 0.0 | 2.0 | 0.01 | 0.23 | 0.23 | 92 | 1009.7 |
| 20260509193515 | 51 | 117 | 0.0 | 2.0 | 0.01 | 0.23 | 0.23 | 92 | 1009.6 |
| 20260509192535 | 51 | 117 | 1.0 | 3.0 | 0.02 | 0.23 | 0.23 | 92 | 1009.6 |
| 20260509191555 | 51 | 168 | 0.0 | 3.0 | 0.02 | 0.22 | 0.22 | 92 | 1009.7 |
| 20260509190515 | 51 | 0.0 | 1.0 | 0.03 | 0.22 | 0.22 | 93 | 1009.8 | |
| 20260509185515 | 50 | 168 | 0.0 | 3.0 | 0.03 | 0.22 | 0.22 | 93 | 1009.8 |
| 20260509184517 | 50 | 169 | 0.0 | 2.0 | 0.04 | 0.22 | 0.22 | 93 | 1009.9 |
| 20260509183537 | 50 | 169 | 0.0 | 2.0 | 0.04 | 0.22 | 0.22 | 92 | 1010.0 |
| 20260509182516 | 50 | 0.0 | 0.0 | 0.04 | 0.21 | 0.21 | 91 | 1010.1 | |
| 20260509181517 | 50 | 0.0 | 0.0 | 0.03 | 0.20 | 0.20 | 91 | 1010.2 | |
| 20260509180537 | 50 | 0.0 | 1.0 | 0.02 | 0.19 | 0.19 | 91 | 1010.1 | |
| 20260509175517 | 50 | 0.0 | 2.0 | 0.03 | 0.19 | 0.19 | 91 | 1010.2 | |
| 20260509174514 | 50 | 174 | 0.0 | 1.0 | 0.02 | 0.18 | 0.18 | 91 | 1010.2 |
| 20260509173517 | 49 | 174 | 0.0 | 2.0 | 0.02 | 0.18 | 0.18 | 90 | 1010.1 |
| 20260509172516 | 49 | 174 | 0.0 | 2.0 | 0.02 | 0.17 | 0.17 | 91 | 1010.1 |
| 20260509171516 | 49 | 179 | 0.0 | 2.0 | 0.02 | 0.17 | 0.17 | 91 | 1010.3 |
| 20260509170516 | 49 | 102 | 0.0 | 2.0 | 0.02 | 0.17 | 0.17 | 91 | 1010.5 |
| 20260509165516 | 49 | 102 | 0.0 | 2.0 | 0.01 | 0.16 | 0.16 | 91 | 1010.6 |
| 20260509164516 | 49 | 102 | 0.0 | 3.0 | 0.02 | 0.16 | 0.16 | 91 | 1010.7 |
| 20260509163516 | 49 | 103 | 1.0 | 3.0 | 0.03 | 0.16 | 0.16 | 91 | 1011.0 |
| 20260509162516 | 49 | 103 | 0.0 | 3.0 | 0.03 | 0.15 | 0.15 | 92 | 1011.1 |
| 20260509161516 | 48 | 103 | 1.0 | 4.0 | 0.04 | 0.15 | 0.15 | 92 | 1011.2 |
| 20260509160516 | 48 | 103 | 0.0 | 3.0 | 0.05 | 0.15 | 0.15 | 92 | 1011.3 |
| 20260509155516 | 48 | 103 | 1.0 | 4.0 | 0.07 | 0.15 | 0.15 | 92 | 1011.5 |
| 20260509154536 | 47 | 85 | 0.0 | 3.0 | 0.07 | 0.14 | 0.14 | 93 | 1011.7 |
| 20260509153516 | 47 | 123 | 0.0 | 3.0 | 0.06 | 0.13 | 0.13 | 93 | 1011.9 |
| 20260509152536 | 47 | 221 | 0.0 | 1.0 | 0.07 | 0.12 | 0.12 | 92 | 1011.9 |
| 20260509151516 | 47 | 0.0 | 2.0 | 0.07 | 0.11 | 0.11 | 92 | 1011.9 | |
| 20260509150516 | 47 | 221 | 0.0 | 2.0 | 0.06 | 0.10 | 0.10 | 93 | 1011.9 |